sat.trackr.live / text

‹ back to catalog

ONEWEB-0319

NORAD 49105 · 2021-075AG

PAYLOAD ACTIVE UNKNOWN

§ Identity

Operator
Country
UK
Launch date
2021-08-21
Launch site
TYMSC
Launch vehicle
Mass (kg)
RCS (m²)

Purposes: comms

External: N2YO · Heavens-Above · Gunter

§ Orbital elements

Epoch: 2026-09-19T22:36:06.022368Z

Period
109.29 min
Inclination
87.9200°
Eccentricity
0.0002380
Mean motion
13.17651066 rev/d
Perigee alt
1,191.9 km
Apogee alt
1,195.5 km
Semi-major
7,571.8 km
B*
-9.2667e-5
RAAN
347.0515°
Arg perigee
108.2666°
Mean anomaly
251.8725°
Rev number
24,608

§ Raw data

ONEWEB-03191 49105U 21075AG  26262.94173637 -.00000023  00000+0 -92667-4 0  99922 49105  87.9200 347.0515 0002380 108.2666 251.8725 13.17651066246080

JSON: /api/v1/satellites/49105 · /tle

For live sub-satellite position, see the globe view (requires WebGL).

§ Visibility from observer

Set your observer location to see the next 7 days of passes ≥ 10°. The values pass through the URL so the page stays shareable.

No JS? Fill the form by hand. The geolocation button needs JavaScript.